User: anonymous   Login
Location: Kott?ru
(16.6209°N, 80.6208°E)
Time: 01:03:59
(UTC+00:00)
Language:

STRAND 1 - Orbit

View from above orbital plane
View from above orbital plane
View from above satellite
View from above satellite

Ground track
Ground track

The orbit data is extracted from the following two-line orbital elements,

1 39090U 13009E   24111.44594685  .00001283  00000-0  45594-3 0  9992
2 39090  98.3833 301.3229 0009991  68.4920 291.7331 14.35986659583956
Epoch (UTC): 20 April 2024 10:42:09
Eccentricity: 0.0009991
inclination: 98.3833°
perigee height: 764 km
apogee height: 779 km
right ascension of ascending node: 301.3229°
argument of perigee: 68.4920°
revolutions per day: 14.35986659
mean anomaly at epoch: 291.7331°
orbit number at epoch: 58395

The dashed part of the orbit path shows where the satellite is in the earth's shadow,  

DLR